GFSNE_sfc_rhum_057.txt.gz
RH
96 96 96 97 95 92 93 90 88 93 89 71 67 58 62 72 77 79 77 75 76 75 73 67 59 57 54 51 48 48 49 50 55 59 60 59 58 56
97 95 95 95 95 94 92 92 85 83 85 80 73 67 60 46 63 77 68 70 76 76 72 72 71 64 57 53 50 51 49 49 54 57 60 59 58 56
96 95 94 93 95 93 91 87 79 80 76 85 78 68 64 62 60 78 70 71 68 77 77 77 78 75 72 65 58 55 53 52 55 57 60 60 58 57
94 94 91 85 93 88 86 85 80 78 80 85 85 80 72 68 70 70 57 46 57 62 72 74 74 75 72 70 69 68 62 58 61 60 62 64 62 58
91 92 92 92 92 92 90 89 86 74 82 84 80 86 76 82 76 71 66 69 50 57 68 71 72 76 75 74 73 72 69 68 70 70 66 67 67 65
93 94 91 90 90 89 87 87 83 86 85 86 82 81 87 73 81 70 73 83 67 43 51 54 64 64 73 75 76 75 73 72 72 74 73 74 76 69
94 92 91 90 91 90 84 93 94 94 95 94 86 86 93 91 87 79 87 83 70 71 64 56 52 59 63 58 63 70 71 67 64 66 68 72 74 73
94 92 93 91 92 92 92 93 92 94 92 88 82 80 79 92 92 91 92 89 85 79 76 63 60 66 62 65 60 66 68 66 66 60 61 66 68 70
95 96 91 67 81 81 83 83 85 85 93 84 82 80 83 83 89 94 95 94 88 87 70 72 74 70 66 46 63 67 68 67 70 72 71 72 72 74
82 83 86 83 84 80 82 83 81 82 81 78 82 82 81 81 90 81 84 87 84 74 67 81 77 74 76 77 68 67 63 67 71 70 68 70 73 74
72 76 74 80 79 72 74 76 70 64 52 63 71 78 83 86 86 88 94 94 93 80 78 74 79 80 78 78 73 62 65 67 69 69 64 68 67 71
78 74 75 74 77 74 78 86 91 82 79 78 78 80 78 78 88 90 83 88 95 98 84 80 79 84 88 80 72 77 76 68 70 68 66 69 68 76
84 84 84 73 69 70 76 86 88 83 87 87 85 79 77 80 77 94 93 99 96 95 82 81 90 84 91 88 88 74 76 87 86 79 74 71 74 80
83 87 88 69 72 77 82 78 75 82 90 93 92 88 84 84 83 84 96 91 88 96 80 75 91 85 92 95 87 86 92 90 95 94 91 84 82 84
84 75 72 75 78 86 70 67 80 84 84 88 91 85 83 91 80 87 96 98 91 89 75 76 90 82 87 86 88 91 91 90 95 97 98 96 96 92
83 84 85 86 90 87 79 75 79 81 85 88 87 84 82 83 90 91 95 98 98 94 82 79 80 81 89 83 87 92 95 94 91 96 97 98 98 97
91 92 90 94 83 81 78 77 78 78 82 85 88 86 85 84 85 87 96 97 97 96 96 87 81 81 84 82 94 89 87 94 94 98 95 97 97 98
91 98 98 97 95 84 86 84 81 82 80 84 86 85 88 87 88 97 99 99 97 94 94 88 89 95 94 87 76 84 94 93 98 96 90 99 98 96
94 96 97 97 96 84 84 85 86 83 81 84 87 87 90 89 90 95 98 94 97 97 95 90 90 93 92 95 88 80 91 97 97 96 92 92 97 87
85 95 96 96 90 85 85 88 87 87 86 86 88 88 93 92 92 96 98 95 94 95 96 87 88 88 89 90 92 93 81 96 97 97 98 97 93 85
90 87 95 95 96 92 98 98 95 90 91 88 90 89 94 94 93 96 98 98 98 94 96 93 81 83 85 85 90 92 91 79 86 94 97 99 98 97
97 95 96 92 97 97 98 99 91 87 92 87 91 89 91 94 93 91 95 98 97 95 92 84 75 71 81 76 86 93 93 99 92 92 90 87 97 97
98 99 98 99 98 97 93 93 89 92 93 91 91 88 91 94 92 93 94 93 98 97 96 97 86 76 74 69 83 92 86 88 95 94 96 93 92 86

GFSNE_sfc_rhum_060.txt.gz
RH
97 95 97 97 96 94 91 89 92 98 86 74 70 63 65 69 79 88 90 83 82 78 77 74 69 63 60 58 57 53 50 48 47 49 53 56 57 57
97 96 96 96 96 96 96 95 94 94 97 75 74 73 67 53 68 92 89 78 82 80 79 76 73 71 68 64 60 54 52 50 48 48 50 53 55 56
96 95 95 95 97 96 95 96 96 92 97 82 76 77 73 69 62 79 80 78 78 83 82 77 75 74 72 72 70 64 57 53 49 50 49 52 56 56
96 96 94 89 94 93 94 93 92 87 87 91 82 81 80 73 69 72 62 57 66 68 80 75 75 76 77 77 74 72 68 65 59 55 55 56 58 60
94 93 92 94 96 93 93 95 94 83 89 91 89 80 86 89 85 83 76 74 66 65 72 81 79 78 80 76 74 75 73 72 73 72 72 67 64 64
92 91 91 94 94 92 92 94 88 90 93 96 96 95 95 91 90 85 82 90 76 59 65 66 75 76 76 78 79 78 76 76 76 76 76 78 80 75
94 92 93 92 92 95 96 94 97 98 98 98 97 96 94 94 93 86 90 78 86 84 82 74 69 71 75 74 72 78 79 79 77 76 68 69 78 78
96 93 92 93 93 86 83 82 90 98 96 97 92 88 93 90 91 85 83 94 93 86 88 80 76 67 65 62 62 67 68 69 71 67 64 66 69 71
94 94 78 69 87 84 82 80 82 79 93 94 91 87 91 84 91 98 96 95 88 82 86 90 84 80 63 48 67 71 71 73 72 74 73 75 74 76
89 85 83 87 84 76 77 74 72 71 67 59 77 77 78 75 82 82 86 92 96 89 85 95 86 73 72 69 65 68 76 73 68 72 74 72 75 76
74 75 77 78 72 70 79 86 87 82 68 71 74 77 80 81 81 89 83 86 88 88 90 82 86 84 80 78 75 67 71 67 67 69 72 71 73 75
76 72 71 75 69 69 88 94 95 88 88 88 88 88 83 84 82 87 89 93 93 90 89 82 81 84 95 82 78 77 75 66 64 65 63 60 68 86
79 82 85 69 68 75 78 90 81 76 80 82 79 82 84 84 81 82 83 98 97 87 91 84 97 95 91 86 91 81 78 82 85 81 67 70 69 80
79 84 82 70 75 77 79 66 67 82 85 87 87 84 83 81 81 80 78 80 98 94 97 98 97 89 87 95 92 89 92 92 96 94 95 79 78 81
77 72 71 74 79 82 66 65 82 91 92 93 91 87 83 80 77 81 80 77 94 89 92 98 98 85 86 90 91 93 89 88 95 97 97 97 98 98
80 81 86 88 88 85 76 75 81 84 88 90 88 85 82 82 83 80 86 84 95 88 94 99 94 83 95 86 85 90 92 91 97 97 97 99 97 98
93 93 93 82 76 75 80 78 80 79 85 87 89 87 85 83 84 81 83 87 95 97 99 97 90 84 84 81 95 86 88 96 96 95 97 98 97 96
92 95 95 95 91 84 88 86 85 86 83 83 88 86 88 88 87 82 84 91 98 98 97 97 93 96 96 90 77 89 97 97 97 93 97 99 98 97
93 92 97 97 95 83 86 87 90 87 83 85 90 87 89 86 87 86 86 87 97 98 95 96 96 97 96 98 88 80 92 96 98 98 97 98 97 92
82 90 94 94 90 85 86 88 91 93 89 89 91 91 92 90 91 88 87 94 97 92 93 91 97 95 95 93 93 90 84 96 97 98 97 98 94 85
83 80 92 94 94 92 97 98 100 99 93 99 95 93 92 91 90 89 92 93 94 96 91 90 90 87 89 86 91 91 90 78 85 92 96 99 99 98
91 90 91 92 98 98 99 100 99 98 94 97 94 97 92 92 92 91 93 94 90 94 91 96 89 94 86 78 88 91 92 94 89 88 86 86 96 98
96 96 97 98 98 99 98 99 98 99 95 95 91 93 94 95 90 90 93 92 92 91 97 98 96 86 75 70 83 93 92 88 92 92 94 91 93 89

GFSNE_sfc_rhum_063.txt.gz
RH
97 98 97 97 96 95 91 87 93 99 95 84 75 64 66 74 73 80 88 85 87 84 81 79 77 74 73 68 63 59 57 57 54 50 50 51 53 55
99 98 97 98 96 96 96 96 95 96 99 82 73 67 65 63 68 82 90 86 87 89 86 83 80 76 75 73 71 66 60 59 55 51 50 50 52 53
98 96 97 95 98 97 96 95 97 98 99 92 81 76 72 68 70 76 87 94 94 85 88 87 84 80 76 74 74 73 70 65 58 52 51 50 51 51
97 96 97 92 95 95 95 95 96 95 97 98 88 82 78 82 82 84 71 65 79 73 81 84 85 83 80 78 77 78 72 72 68 62 56 51 51 51
95 95 96 95 97 96 94 94 94 89 94 97 96 92 94 93 92 91 89 85 75 71 76 78 81 84 84 81 78 76 78 76 74 72 71 69 61 58
95 93 92 92 93 94 93 95 94 91 92 98 94 89 95 91 96 97 92 88 86 69 70 71 73 75 83 82 80 80 82 77 76 79 77 79 80 78
94 92 94 93 94 96 95 97 97 99 99 99 96 94 90 85 96 93 92 85 81 92 82 77 80 76 77 79 82 82 82 84 80 74 76 77 79 79
96 97 90 85 85 84 82 81 87 92 92 96 96 94 92 95 95 96 87 83 80 79 90 82 85 74 73 89 77 80 83 79 76 76 75 74 71 73
95 88 72 72 83 79 68 62 62 62 86 89 93 93 92 86 91 92 88 88 86 71 77 80 92 88 78 70 84 80 74 72 72 73 74 73 74 79
86 80 88 85 79 75 74 74 78 79 76 72 80 82 85 84 91 86 89 88 79 69 79 88 76 91 87 83 77 76 73 72 75 77 76 77 79 79
77 76 74 79 70 67 78 86 86 81 70 68 68 72 76 79 79 88 85 88 90 79 78 88 80 88 90 81 74 72 75 78 79 74 72 72 76 76
71 70 73 73 68 72 90 92 93 83 81 78 77 78 72 84 81 86 89 89 86 87 77 97 79 86 95 94 88 80 85 79 72 63 60 61 62 85
75 79 80 68 71 76 79 81 76 79 78 80 81 81 80 81 77 75 80 91 92 90 74 88 97 90 96 94 91 86 80 83 84 75 64 65 65 72
76 79 79 70 75 72 76 64 67 85 93 90 88 84 83 81 79 78 77 79 80 84 78 85 97 95 97 95 89 85 89 95 95 94 95 76 74 76
79 74 70 75 71 76 63 66 80 88 92 94 89 84 81 77 73 78 76 74 75 76 68 82 97 96 97 94 86 92 86 91 94 95 97 97 96 98
79 79 84 85 81 79 75 71 75 82 85 90 88 84 80 80 83 79 85 82 85 83 74 89 98 98 96 92 80 91 93 90 96 96 97 98 99 99
92 90 83 78 76 75 76 75 75 75 82 85 87 87 84 81 84 81 82 85 91 88 85 84 96 98 97 85 94 91 94 97 94 96 94 99 97 95
88 90 94 95 89 79 83 81 79 80 76 80 85 86 86 88 87 83 84 89 92 88 89 97 98 97 97 92 81 92 98 95 93 90 95 100 98 96
91 89 94 96 92 78 80 81 84 82 79 81 86 91 89 88 89 87 88 87 89 83 82 98 98 98 96 96 93 79 92 94 97 98 98 98 97 92
87 90 94 96 87 79 78 79 82 91 89 86 91 97 95 94 92 90 88 93 90 85 86 97 98 94 95 93 94 92 82 96 96 98 98 98 94 84
82 79 90 88 86 82 92 96 98 98 96 98 99 99 98 98 95 92 91 89 92 89 89 95 92 91 95 93 95 92 92 82 86 91 95 99 98 98
90 88 88 86 90 91 98 99 100 99 99 99 99 100 100 98 96 94 92 93 88 92 90 81 93 96 96 92 92 92 91 91 84 86 80 84 95 98
96 94 92 95 95 96 93 99 99 100 98 97 99 95 99 98 94 93 93 90 89 91 91 89 91 96 92 90 86 94 92 88 90 88 92 89 90 87

GFSNE_sfc_rhum_066.txt.gz
RH
97 97 96 95 97 96 94 90 93 98 94 85 79 69 70 70 72 74 79 80 85 89 88 85 80 78 76 74 72 69 64 62 60 58 58 55 53 53
98 98 97 98 97 97 95 93 91 92 97 86 76 72 68 62 68 74 75 76 86 89 90 90 87 82 79 78 77 74 73 65 64 62 61 58 55 53
99 98 98 96 97 96 96 94 94 94 98 92 85 79 76 76 72 72 72 80 82 87 89 89 90 88 85 82 80 77 76 75 76 73 67 60 58 59
99 98 98 94 97 96 96 95 94 95 96 98 91 85 81 81 81 86 77 70 78 78 84 86 86 87 88 87 85 82 79 77 76 74 68 68 65 56
97 96 97 95 98 96 94 95 93 87 95 98 96 90 89 87 86 87 86 88 77 75 81 83 83 82 82 84 86 85 84 82 79 77 79 82 79 57
96 95 95 93 94 95 93 94 93 95 92 93 90 88 90 83 90 92 86 85 83 66 69 74 77 76 78 78 79 82 84 86 82 80 88 87 80 76
97 95 95 94 95 94 94 97 96 97 96 91 90 94 92 89 85 91 81 72 69 64 64 75 75 76 73 75 72 76 81 84 84 84 96 97 91 81
98 96 93 90 89 88 86 85 83 85 85 87 88 77 74 86 87 85 84 82 77 73 78 72 70 67 64 65 73 77 78 85 87 94 96 88 83 81
94 86 77 78 80 67 66 64 66 68 82 76 76 79 84 75 84 89 89 89 85 73 76 81 71 75 68 61 74 78 79 84 86 90 86 81 80 82
86 84 77 72 71 66 64 72 75 73 76 73 80 82 83 83 86 81 83 80 75 67 71 86 69 74 70 70 75 80 81 80 95 86 80 79 81 79
74 72 70 70 69 66 74 76 76 77 59 60 61 62 65 67 72 86 87 88 87 68 65 79 73 78 76 72 69 76 78 83 100 80 78 81 79 79
68 69 73 73 73 81 86 82 77 73 68 61 62 66 65 68 70 66 76 89 87 80 71 78 66 70 82 65 80 80 82 96 92 80 73 64 68 65
72 76 77 73 77 79 75 75 75 70 67 66 65 68 68 70 67 66 70 82 90 85 67 79 80 79 88 87 79 84 89 96 96 85 63 60 61 62
76 78 81 76 77 71 72 70 73 76 81 81 78 74 72 72 69 67 67 71 74 78 73 81 92 83 88 88 87 83 91 85 79 76 75 68 66 68
83 75 75 75 71 72 67 72 81 81 83 88 84 77 72 67 60 66 66 64 69 71 61 73 82 81 88 92 89 90 76 72 79 77 80 78 77 80
83 82 87 83 82 78 75 72 74 77 80 83 81 76 73 74 72 69 80 79 85 79 62 72 79 95 93 94 93 94 80 78 80 80 80 84 84 88
94 88 82 78 76 75 76 73 75 74 78 80 82 78 79 76 76 74 75 80 90 85 79 70 73 89 96 93 94 91 77 78 78 83 79 82 85 89
88 90 91 90 85 79 84 81 78 78 75 76 79 75 80 82 81 77 76 85 91 85 84 77 83 91 93 94 92 80 88 81 78 78 80 88 88 88
89 88 91 92 89 78 80 80 82 77 79 79 79 80 82 81 86 83 82 81 87 82 77 77 86 92 94 93 93 89 92 83 84 86 85 90 91 84
84 87 89 90 85 80 79 79 78 83 86 80 84 88 93 90 90 86 84 92 90 83 81 72 80 94 95 93 95 85 82 90 87 87 85 88 84 83
93 91 93 92 91 90 93 93 94 94 92 93 93 93 96 96 95 92 91 92 91 84 84 78 76 94 90 95 97 86 80 80 82 83 84 85 87 84
94 93 93 93 93 92 95 95 96 95 94 94 95 98 100 98 97 95 94 94 87 88 83 75 75 86 89 92 90 90 79 78 80 86 77 78 85 86
95 93 94 94 93 92 86 91 93 97 95 95 96 96 99 100 94 93 93 89 87 87 82 85 86 88 91 91 90 91 83 79 78 80 81 89 84 83